+ View the NASA Portal
+ Center for Near-Earth Object Studies
IMPORTANT:
The SSD Announcement email list is now available. Major changes are coming in the near future, including possible hostname and/or URL changes. To be notified of such changes, subscribe to this email list.
Please visit
this page
for more details.
Don't show this message again
JPL Small-Body Database Browser
Search:
[
help
]
146003 (2000 CT52)
Classification:
Main-belt Asteroid
SPK-ID:
2146003
[
Ephemeris
|
Orbit Diagram
|
Orbital Elements
|
Mission Design
|
Physical Parameters
|
Discovery Circumstances
|
Close-Approach Data
]
[ show orbit diagram ]
Orbital Elements at Epoch 2458600.5 (2019-Apr-27.0) TDB
Reference:
JPL 21
(heliocentric ecliptic J2000)
Element
Value
Uncertainty (1-sigma)
Units
e
.1545694416615871
4.0039e-08
a
2.368979287310857
1.1839e-08
au
q
2.002807481563354
9.5308e-08
au
i
1.51762407867351
4.5512e-06
deg
node
251.9247714173919
0.00015578
deg
peri
222.6904784452805
0.00015645
deg
M
125.7747130454048
1.3171e-05
deg
t
p
2458135.202031262640
(2018-Jan-16.70203126)
4.8781e-05
TDB
period
1331.804022363217
3.65
9.9832e-06
2.733e-08
d
yr
n
.270310041083371
2.0262e-09
deg/d
Q
2.735151093058361
1.3668e-08
au
Orbit Determination Parameters
# obs. used (total)
578
data-arc span
6665 days (18.25 yr)
first obs. used
2000-02-02
last obs. used
2018-05-03
planetary ephem.
DE431
SB-pert. ephem.
SB431-N16
condition code
0
norm. resid. RMS
.5509
source
ORB
producer
Otto Matic
solution date
2019-Jul-13 11:28:00
Additional Information
Earth MOID
= 1.01983 au
Jupiter MOID
= 2.36205 au
T_jup
= 3.529
[ show covariance matrix ]
[
Ephemeris
|
Orbit Diagram
|
Orbital Elements
|
Mission Design
|
Physical Parameters
|
Discovery Circumstances
|
Close-Approach Data
]
Physical Parameter Table
Parameter
Symbol
Value
Units
Sigma
Reference
Notes
absolute magnitude
H
16.2
n/a
MPO436732
146003 (2000 CT52)
Discovered 2000-Feb-02 by LINEAR at Socorro
Reference:
20070106/Numbers.arc
Last Updated:
2007-01-09
[ show close-approach data ]
[
Ephemeris
|
Orbit Diagram
|
Orbital Elements
|
Mission Design
|
Physical Parameters
|
Discovery Circumstances
|
Close-Approach Data
]
2019-Dec-11 01:30 UT
(server date/time)
Site Manager:
Ryan S. Park
Webmaster
:
Alan B. Chamberlin